Location: Koslow
(50.3020°N, 18.5663°E)
Time: 04:09:06
(UTC+00:00)

Cosmos 489 Rocket - Pass Details

Date: 07 June 2020
Orbit: 952 x 984 km, 74.0° (Epoch: 04 July)

Event Time Altitude Azimuth Distance (km) Brightness Sun altitude
Exits shadow 00:18:07 20° 202° (SSW) 2,066 5.6 -14.0°
Maximum altitude 00:22:38 89° 116° (ESE) 970 4.5 -13.8°
Drops below altitude 10° 00:28:58 10° 24° (NNE) 2,721 8.3 -13.4°
Sets 00:31:31 0° 25° (NNE) 3,676 9.6 -13.2°
